Simultaneous Nadir Overpasses (SNOs) Predictions

Prediction of SNOs between AQUA and NPP Satellite Orbit:

Table of predicted SNOs for the next 14.0 days since TLE Epoch: 11/10/2012
Index Date (AQUA) Time (AQUA) Lat,Lon (AQUA) SZA (AQUA ) Date (NPP) Time (NPP) Lat,Lon (NPP) SZA (NPP ) Distance(km) Time Diff (sec)
1 11/10/2012 14:53:46 -76.86, 18.29 67.66 11/10/2012 14:53:04 -76.87, 18.38 67.65 2.54 42
2 11/10/2012 15:42:55 77.64,-171.04 111.49 11/10/2012 15:43:30 77.64,-170.93 111.43 2.62 35
3 11/13/2012 07:10:38 -76.77, 133.77 66.84 11/13/2012 07:10:01 -76.77, 133.77 66.81 0.26 37
4 11/13/2012 07:59:48 77.51, -55.77 112.35 11/13/2012 08:00:28 77.51, -55.79 112.32 0.68 40
5 11/15/2012 23:27:47 -76.75,-110.61 66.12 11/15/2012 23:26:57 -76.76,-110.53 66.10 2.27 50
6 11/16/2012 00:16:58 77.45, 59.69 113.11 11/16/2012 00:17:25 77.45, 59.71 113.09 0.39 27
7 11/18/2012 15:49:50 -61.72, -18.20 51.61 11/18/2012 15:48:37 -61.97, -19.73 51.06 85.53 73
8 11/18/2012 16:34:31 77.12, 174.05 114.14 11/18/2012 16:34:28 77.12, 174.04 114.14 0.09 3
9 11/18/2012 17:23:43 -77.87, -15.24 66.71 11/18/2012 17:24:56 -77.87, -15.18 66.78 1.27 73
10 11/21/2012 08:52:27 76.52, -72.56 115.42 11/21/2012 08:51:37 76.51, -72.61 115.48 1.60 50
11 11/21/2012 09:41:39 -77.31, 97.96 65.44 11/21/2012 09:42:05 -77.30, 97.87 65.44 2.30 26




NCC Satellite Simultaneous Nadir Overpasses (SNOs) Prediction Service
